This is the latest recevied weather packets stored in our database for station/object OK5TVR-5. If no packets are shown the sender has not sent any weather packets the latest 10 day(s).
| Time | Temp. | Humidity | Pressure | Rain* | Wind** | Luminosity | Snow |
|---|---|---|---|---|---|---|---|
| 1787905864 | 23.33° C | 54% | 1004.6 hPa | 0 mm | - | 149 W/m² | - |
| 1787904964 | 22.22° C | 57% | 1004.5 hPa | 0 mm | - | 167 W/m² | - |
| 1787904064 | 22.22° C | 60% | 1004.7 hPa | 0 mm | - | 103 W/m² | - |
| 1787903164 | 22.22° C | 59% | 1005.6 hPa | 0 mm | - | 154 W/m² | - |
| 1787902264 | 21.11° C | 64% | 1006.1 hPa | 0 mm | - | 86 W/m² | - |
| 1787901364 | 21.11° C | 64% | 1006.3 hPa | 0 mm | - | 68 W/m² | - |
| 1787900465 | 20.56° C | 66% | 1006.7 hPa | 0 mm | - | 40 W/m² | - |
| 1787899564 | 20.56° C | 64% | 1006 hPa | 0 mm | - | 53 W/m² | - |
| 1787898664 | 21.11° C | 63% | 1006 hPa | 0 mm | - | 73 W/m² | - |
| 1787897764 | 20° C | 68% | 1005.9 hPa | 0 mm | - | 72 W/m² | - |
| 1787896865 | 18.89° C | 70% | 1005.8 hPa | 0 mm | - | 34 W/m² | - |
| 1787895964 | 18.89° C | 70% | 1006 hPa | 0 mm | - | 23 W/m² | - |
| 1787895065 | 19.44° C | 69% | 1006.1 hPa | 0 mm | - | 14 W/m² | - |
| 1787894164 | 18.33° C | 72% | 1006 hPa | 0 mm | - | 17 W/m² | - |
| 1787893264 | 18.33° C | 72% | 1005.8 hPa | 0 mm | - | 11 W/m² | - |
| 1787892364 | 18.33° C | 72% | 1005.9 hPa | 0 mm | - | 6 W/m² | - |
| 1787891464 | 18.33° C | 72% | 1005.6 hPa | 0 mm | - | 2 W/m² | - |
| 1787890564 | 18.33° C | 72% | 1005.6 hPa | 0 mm | - | 1 W/m² | - |
| 1787889664 | 18.89° C | 70% | 1005.9 hPa | 0 mm | - | 0 W/m² | - |
| 1787888764 | 18.89° C | 70% | 1006.1 hPa | 0 mm | - | 0 W/m² | - |
| 1787887864 | 18.89° C | 69% | 1006.4 hPa | 0 mm | - | 0 W/m² | - |
| 1787886964 | 18.89° C | 69% | 1006.2 hPa | 0 mm | - | 0 W/m² | - |
| 1787886068 | 18.89° C | 71% | 1005.9 hPa | 0 mm | - | 0 W/m² | - |
| 1787885164 | 18.89° C | 70% | 1006.3 hPa | 0 mm | - | 0 W/m² | - |
| 1787884264 | 19.44° C | 69% | 1006.6 hPa | 0 mm | - | 0 W/m² | - |
* Rain latest hour (hover to see other rain measurements)
** Current wind speed in m/s (hover to see current wind gust speed)